Location: LDNL
(36.4545°S, 141.6685°E)
Time: 12:30:08
(UTC+10:00)

Explorer 7 - Pass Details

Date: 15 August 2022
Orbit: 482 x 668 km, 50.3° (Epoch: 26 September)

Event Time Altitude Azimuth Distance (km) Brightness Sun altitude
Rises 02:07:47 0° 253° (WSW) 2,797 - -60.1°
Reaches altitude 10° 02:11:50 10° 290° (WNW) 1,830 - -59.5°
Maximum altitude 02:12:52 11° 304° (NW) 1,761 - -59.3°
Drops below altitude 10° 02:13:53 10° 319° (NW) 1,796 - -59.1°
Sets 02:17:43 0° 357° (N) 2,622 - -58.5°
